Moosic, PA

3:19 AM EDT on July 29, 2016 (GMT -0400)
Wilkes-Barre-Scranton International

Weather History for KAVP - January, 2013

Change the Weather History Date:

Monday, January 7, 2013

  Actual Average Record
Temperature  
Mean Temperature 34 °F 26 °F  
Max Temperature 38 °F 33 °F 63 °F (1998)
Min Temperature 29 °F 19 °F -4 °F (2014)
Degree Days  
Heating Degree Days 31 39  
Month to date heating degree days 260 272  
Since 1 July heating degree days 2374 2650  
Cooling Degree Days 0 0  
Month to date cooling degree days 0 0  
Year to date cooling degree days 0 0  
Moisture  
Dew Point 25 °F    
Average Humidity 64    
Maximum Humidity 75    
Minimum Humidity 52    
Precipitation  
Precipitation T in 0.07 in 1.13 in (1979)
Month to date precipitation 0.03 0.50  
Year to date precipitation 0.03 0.50  
Sea Level Pressure  
Sea Level Pressure 30.28 in    
Wind  
Wind Speed 6 mph (WNW)    
Max Wind Speed 20 mph    
Max Gust Speed 25 mph    
Visibility 10 miles    
Events Rain    
T = Trace of Precipitation, MM = Missing Value Source: NWS Daily Summary

Daily Weather History Graph

Daily Weather History Graph

Search for Another Location

Airport or City:

Trip Planner

Search our weather history database for the weather conditions in past years. The results will help you decide how hot, cold, wet, or windy it might be!

Date:

Astronomy

Jan. 07, 2013 Rise Set
Actual Time 7:28 AM EST 4:50 PM EST
Civil Twilight 6:57 AM EST 5:21 PM EST
Nautical Twilight 6:23 AM EST 5:55 PM EST
Astronomical Twilight 5:49 AM EST 6:28 PM EST
Moon 2:49 AM EST (1/7) 12:59 PM EST (1/7)
Length of Visible Light 10h 23m
Length of Day
9h 21m
Waning Crescent, 23% of the Moon is Illuminated
Jan 7
Waning Crescent
Jan 11
New
Jan 18
First Quarter
Jan 26
Full
Feb 3
Last Quarter

Hourly Weather History & Observations

Time (EST) Temp. Windchill Dew Point Humidity Pressure Visibility Wind Dir Wind Speed Gust Speed Precip Events Conditions
12:54 AM 35.1 °F 27.9 °F 28.0 °F 76% 30.08 in 10.0 mi SW 9.2 mph - N/A   Overcast
1:54 AM 35.1 °F 28.6 °F 28.0 °F 76% 30.09 in 10.0 mi SW 8.1 mph - N/A   Overcast
2:54 AM 35.1 °F 28.6 °F 28.0 °F 76% 30.12 in 10.0 mi SW 8.1 mph - N/A   Overcast
3:54 AM 35.1 °F 28.6 °F 28.0 °F 76% 30.14 in 10.0 mi SW 8.1 mph - N/A   Overcast
4:54 AM 35.1 °F 30.1 °F 28.0 °F 76% 30.16 in 10.0 mi SW 5.8 mph - N/A   Overcast
5:54 AM 35.6 °F - 28.4 °F 75% 30.17 in 10.0 mi Calm Calm - N/A   Overcast
6:33 AM 35.6 °F 29.9 °F 28.4 °F 75% 30.20 in 10.0 mi WNW 6.9 mph - N/A   Overcast
6:54 AM 35.1 °F 28.6 °F 28.0 °F 76% 30.23 in 10.0 mi NW 8.1 mph - N/A   Overcast
7:47 AM 35.6 °F 27.1 °F 28.4 °F 75% 30.25 in 9.0 mi North 12.7 mph - N/A   Overcast
7:54 AM 35.1 °F 26.4 °F 27.0 °F 72% 30.27 in 9.0 mi North 12.7 mph - N/A   Overcast
8:24 AM 35.6 °F 26.2 °F 23.0 °F 60% 30.26 in 10.0 mi NW 15.0 mph 25.3 mph N/A   Overcast
8:54 AM 35.1 °F 25.5 °F 24.1 °F 64% 30.30 in 10.0 mi NW 15.0 mph - N/A   Overcast
9:54 AM 35.1 °F 26.4 °F 25.0 °F 67% 30.34 in 10.0 mi North 12.7 mph - N/A   Overcast
10:03 AM 33.8 °F 26.4 °F 24.8 °F 70% 30.31 in 10.0 mi North 9.2 mph - N/A   Overcast
10:54 AM 34.0 °F 25.0 °F 24.1 °F 67% 30.36 in 10.0 mi NNW 12.7 mph - 0.00 in Rain Light Rain
11:54 AM 34.0 °F 29.8 °F 24.1 °F 67% 30.36 in 10.0 mi NNW 4.6 mph - 0.00 in   Overcast
12:54 PM 35.1 °F 30.1 °F 23.0 °F 61% 30.37 in 10.0 mi NNW 5.8 mph - N/A   Mostly Cloudy
1:54 PM 37.0 °F 32.4 °F 23.0 °F 57% 30.35 in 10.0 mi NNE 5.8 mph - 0.00 in   Clear
2:54 PM 37.9 °F - 21.9 °F 53% 30.36 in 10.0 mi Calm Calm - N/A   Clear
3:54 PM 37.0 °F - 21.9 °F 54% 30.37 in 10.0 mi Calm Calm - N/A   Clear
4:54 PM 35.1 °F - 21.9 °F 59% 30.35 in 10.0 mi Calm Calm - N/A   Clear
5:54 PM 30.2 °F - 21.2 °F 69% 30.33 in 10.0 mi Calm Calm - N/A   Clear
6:54 PM 32.0 °F 28.7 °F 21.9 °F 66% 30.37 in 10.0 mi SSW 3.5 mph - N/A   Clear
7:54 PM 32.0 °F 28.7 °F 23.0 °F 69% 30.36 in 10.0 mi South 3.5 mph - N/A   Clear
8:54 PM 32.0 °F 27.5 °F 23.0 °F 69% 30.35 in 10.0 mi SW 4.6 mph - N/A   Clear
9:54 PM 32.0 °F 26.4 °F 23.0 °F 69% 30.34 in 9.0 mi SSW 5.8 mph - N/A   Clear
10:54 PM 30.0 °F 24.1 °F 21.9 °F 72% 30.35 in 8.0 mi SSW 5.8 mph - N/A   Clear
11:54 PM 28.9 °F - 21.9 °F 75% 30.34 in 8.0 mi Calm Calm - N/A   Clear